This is the latest recevied weather packets stored in our database for station/object OM5AST-13. If no packets are shown the sender has not sent any weather packets the latest 10 day(s).
| Time | Temp. | Humidity | Pressure | Rain* | Wind** | Luminosity | Snow |
|---|---|---|---|---|---|---|---|
| 1788458635 | 25.56° C | 41% | - | 0 mm | - | 0 W/m² | - |
| 1788457435 | 26.11° C | 40% | - | 0 mm | - | 0 W/m² | - |
| 1788456235 | 26.11° C | 40% | - | 0 mm | - | 0 W/m² | - |
| 1788455035 | 26.67° C | 39% | - | 0 mm | - | 0 W/m² | - |
| 1788453835 | 26.67° C | 38% | - | 0 mm | - | 0 W/m² | - |
| 1788452635 | 26.67° C | 38% | - | 0 mm | - | 0 W/m² | - |
| 1788451435 | 26.67° C | 39% | - | 0 mm | - | 0 W/m² | - |
| 1788450235 | 27.22° C | 40% | - | 0 mm | - | 0 W/m² | - |
| 1788449035 | 27.22° C | 38% | - | 0 mm | - | 0 W/m² | - |
| 1788447835 | 27.22° C | 37% | - | 0 mm | - | 0 W/m² | - |
| 1788446635 | 27.22° C | 38% | - | 0 mm | - | 0 W/m² | - |
| 1788445435 | 27.22° C | 38% | - | 0 mm | - | 0 W/m² | - |
| 1788444235 | 27.78° C | 39% | - | 0 mm | - | 0 W/m² | - |
| 1788443035 | 27.22° C | 38% | - | 0 mm | - | 0 W/m² | - |
| 1788441835 | 27.22° C | 38% | - | 0 mm | - | 0 W/m² | - |
| 1788440635 | 27.22° C | 38% | - | 0 mm | - | 0 W/m² | - |
| 1788439435 | 27.22° C | 37% | - | 0 mm | - | 0 W/m² | - |
| 1788438235 | 27.22° C | 37% | - | 0 mm | - | 0 W/m² | - |
| 1788437035 | 26.67° C | 38% | - | 0 mm | - | 0 W/m² | - |
| 1788435835 | 26.11° C | 37% | - | 0 mm | - | 0 W/m² | - |
| 1788434635 | 26.11° C | 40% | - | 0 mm | - | 0 W/m² | - |
| 1788433435 | 26.11° C | 40% | - | 0 mm | - | 0 W/m² | - |
| 1788432235 | 26.11° C | 41% | - | 0 mm | - | 0 W/m² | - |
| 1788431035 | 25.56° C | 44% | - | 0 mm | - | 0 W/m² | - |
| 1788429835 | 25° C | 46% | - | 0 mm | - | 0 W/m² | - |
* Rain latest hour (hover to see other rain measurements)
** Current wind speed in m/s (hover to see current wind gust speed)